Bradford, PA

6:33 PM EDT on August 17, 2017 (GMT -0400)
Bradford Regional

Weather History for KBFD - September, 2014

Change the Weather History Date:

Wednesday, September 24, 2014

  Actual Average Record
Temperature  
Mean Temperature 56 °F 54 °F  
Max Temperature 69 °F 65 °F 82 °F (1961)
Min Temperature 42 °F 42 °F 24 °F (1974)
Degree Days  
Heating Degree Days 9 7  
Month to date heating degree days 174 96  
Since 1 July heating degree days 358 249  
Cooling Degree Days 0 0  
Month to date cooling degree days 25 13  
Year to date cooling degree days 195 190  
Growing Degree Days 6 (Base 50)    
Moisture  
Dew Point 45 °F    
Average Humidity 73    
Maximum Humidity 96    
Minimum Humidity 49    
Precipitation  
Precipitation 0.00 in 0.13 in 1.37 in (1977)
Month to date precipitation 2.25 3.14  
Year to date precipitation 33.59 33.09  
Sea Level Pressure  
Sea Level Pressure 30.47 in    
Wind  
Wind Speed 6 mph (SE)    
Max Wind Speed 17 mph    
Max Gust Speed 24 mph    
Visibility 6 miles    
Events Fog    
T = Trace of Precipitation, MM = Missing Value Source: NWS Daily Summary

Daily Weather History Graph

Daily Weather History Graph

Search for Another Location

Airport or City:

Trip Planner

Search our weather history database for the weather conditions in past years. The results will help you decide how hot, cold, wet, or windy it might be!

Date:

Astronomy

Sep. 24, 2014 Rise Set
Actual Time 7:04 AM EDT 7:08 PM EDT
Civil Twilight 6:36 AM EDT 7:36 PM EDT
Nautical Twilight 6:03 AM EDT 8:08 PM EDT
Astronomical Twilight 5:30 AM EDT 8:41 PM EDT
Moon 7:23 AM EDT (9/24) 7:17 PM EDT (9/24)
Length of Visible Light 12h 59m
Length of Day
12h 04m
New Moon, 0% of the Moon is Illuminated
Sep 24
New Moon
Oct 1
First Quarter
Oct 8
Full
Oct 15
Last Quarter
Oct 23
New

Hourly Weather History & Observations

Time (EDT) Temp. Dew Point Humidity Pressure Visibility Wind Dir Wind Speed Gust Speed Precip Events Conditions
12:49 AM 46.4 °F 44.6 °F 93% 30.43 in 0.5 mi Calm Calm - N/A Fog Fog
12:53 AM 46.9 °F 45.0 °F 93% 30.43 in 0.5 mi Calm Calm - N/A Fog Fog
1:11 AM 46.9 °F 46.0 °F 97% 30.43 in 2.0 mi Calm Calm - N/A   Clear
1:18 AM 46.9 °F 45.0 °F 93% 30.43 in 4.0 mi Calm Calm - N/A   Clear
1:53 AM 46.0 °F 44.1 °F 93% 30.44 in 2.0 mi Calm Calm - N/A   Clear
2:02 AM 46.9 °F 44.1 °F 90% 30.44 in 8.0 mi Calm Calm - N/A   Clear
2:09 AM 46.0 °F 44.1 °F 93% 30.44 in 1.5 mi Calm Calm - N/A   Clear
2:24 AM 46.9 °F 45.0 °F 93% 30.44 in 10.0 mi Calm Calm - N/A   Clear
2:53 AM 44.1 °F 43.0 °F 96% 30.44 in 8.0 mi Calm Calm - N/A   Clear
3:00 AM 44.1 °F 42.1 °F 93% 30.44 in 1.8 mi Calm Calm - N/A   Clear
3:11 AM 44.1 °F 42.1 °F 93% 30.44 in 4.0 mi Calm Calm - N/A   Clear
3:23 AM 45.0 °F 42.1 °F 90% 30.44 in 4.0 mi Calm Calm - N/A   Scattered Clouds
3:28 AM 45.0 °F 42.1 °F 90% 30.44 in 1.8 mi Calm Calm - N/A   Mostly Cloudy
3:36 AM 44.1 °F 42.1 °F 93% 30.45 in 0.2 mi Calm Calm - N/A Fog Fog
3:53 AM 45.0 °F 43.0 °F 93% 30.45 in 0.5 mi Calm Calm - N/A Fog Fog
4:01 AM 45.0 °F 43.0 °F 93% 30.45 in 0.2 mi Calm Calm - N/A Fog Fog
4:09 AM 45.0 °F 43.0 °F 93% 30.45 in 0.8 mi Calm Calm - N/A   Mist
4:11 AM 45.0 °F 43.0 °F 93% 30.45 in 1.2 mi Calm Calm - N/A   Scattered Clouds
4:15 AM 44.1 °F 42.1 °F 93% 30.45 in 4.0 mi Calm Calm - N/A   Scattered Clouds
4:53 AM 42.1 °F 39.9 °F 92% 30.46 in 8.0 mi Calm Calm - N/A   Clear
5:14 AM 43.0 °F 41.0 °F 93% 30.46 in 5.0 mi Calm Calm - N/A   Scattered Clouds
5:22 AM 43.0 °F 41.0 °F 93% 30.46 in 2.0 mi Calm Calm - N/A   Mostly Cloudy
5:29 AM 43.0 °F 41.0 °F 93% 30.46 in 1.0 mi Calm Calm - N/A   Mist
5:36 AM 44.1 °F 41.0 °F 89% 30.46 in 3.0 mi Calm Calm - N/A   Mostly Cloudy
5:53 AM 43.0 °F 41.0 °F 93% 30.47 in 6.0 mi Calm Calm - N/A   Partly Cloudy
6:53 AM 43.0 °F 41.0 °F 93% 30.49 in 8.0 mi Calm Calm - N/A   Clear
7:53 AM 44.1 °F 42.1 °F 93% 30.51 in 10.0 mi Calm Calm - N/A   Clear
8:53 AM 54.0 °F 50.0 °F 86% 30.52 in 10.0 mi ESE 4.6 mph - N/A   Clear
9:53 AM 57.9 °F 48.9 °F 72% 30.54 in 10.0 mi SE 11.5 mph - N/A   Clear
10:53 AM 63.0 °F 50.0 °F 63% 30.53 in 10.0 mi SE 11.5 mph - N/A   Clear
11:53 AM 64.9 °F 48.0 °F 54% 30.52 in 10.0 mi SE 16.1 mph 24.2 mph N/A   Clear
12:53 PM 66.9 °F 48.9 °F 52% 30.52 in 10.0 mi SE 10.4 mph 20.7 mph N/A   Clear
1:53 PM 68.0 °F 48.9 °F 50% 30.50 in 10.0 mi ESE 13.8 mph 17.3 mph N/A   Clear
2:53 PM 69.1 °F 51.1 °F 53% 30.49 in 10.0 mi ESE 9.2 mph - N/A   Clear
3:53 PM 69.1 °F 50.0 °F 51% 30.48 in 10.0 mi ESE 12.7 mph - N/A   Clear
4:53 PM 68.0 °F 50.0 °F 52% 30.48 in 10.0 mi SE 11.5 mph - N/A   Clear
5:53 PM 66.9 °F 50.0 °F 54% 30.47 in 10.0 mi SSE 11.5 mph - N/A   Partly Cloudy
6:53 PM 63.0 °F 50.0 °F 63% 30.48 in 10.0 mi SE 11.5 mph - N/A   Clear
7:53 PM 57.9 °F 48.9 °F 72% 30.50 in 10.0 mi SE 6.9 mph - N/A   Clear
8:53 PM 55.9 °F 48.9 °F 77% 30.48 in 10.0 mi SE 3.5 mph - N/A   Clear
9:53 PM 54.0 °F 48.9 °F 83% 30.46 in 10.0 mi Calm Calm - N/A   Clear
10:53 PM 52.0 °F 48.9 °F 89% 30.46 in 10.0 mi Calm Calm - N/A   Clear
11:53 PM 50.0 °F 48.0 °F 93% 30.45 in 10.0 mi Calm Calm - N/A   Clear